This demonstration page uses our WeatherBlox Daily Observations layout. Learn more.

Left ArrowRight Arrow

Hourly Observations for June 6, 2021

Temp ( °F °C ) Dew Point ( °F °C ) Humidity (%) Winds ( mph kmh ) Pressure ( in mb ) Visibility ( mi km ) Precip ( " mm )
12:53 am 00:53 Clear 64 17.8 62 16.7 93 93 N N/A 30.03 1017 9 14 N/A
1:53 am 01:53 Clear 63 17.2 61 16.1 93 93 N N/A 30.02 1017 9 14 N/A
2:53 am 02:53 Clear with Mist and Fog 62 16.7 61 16.1 96 96 N N/A 30.01 1016 6 10 N/A
3:53 am 03:53 Clear with Mist and Fog 61 16.1 60 15.6 97 97 N N/A 30.01 1016 6 10 N/A
4:53 am 04:53 Clear with Mist and Fog 60 15.6 60 15.6 100 100 N N/A 30.01 1016 4 6 N/A
5:53 am 05:53 Clear with Mist and Fog 60 15.6 59 15 96 96 N N/A 30.04 1017 3 5 N/A
6:40 am 06:40 Sunny with Mist and Fog 61 16.1 61 16.1 100 100 N N/A 30.05 1018 3 4 N/A
6:48 am 06:48 Sunny with Mist and Fog 61 16 61 16 100 100 N N/A 30.05 1018 4 6 N/A
6:53 am 06:53 Sunny with Mist and Fog 62 16.7 61 16.1 96 96 N N/A 30.05 1018 6 10 N/A
7:53 am 07:53 Sunny 67 19.4 64 17.8 91 91 N N/A 30.06 1018 7 11 N/A
8:53 am 08:53 Mostly Sunny 73 22.8 65 18.3 76 76 E 3 6 30.07 1018 10 16 N/A
9:53 am 09:53 Mostly Cloudy 77 25 66 18.9 69 69 N N/A 30.08 1019 10 16 N/A
10:53 am 10:53 Sunny 83 28.3 65 18.3 55 55 VRB 6 9 30.08 1019 10 16 N/A
11:53 am 11:53 Cloudy 79 26.1 65 18.3 62 62 VRB 3 6 30.07 1018 10 16 N/A
12:53 pm 12:53 Cloudy with Light Rain 77 25 67 19.4 71 71 N N/A 30.07 1018 10 16 0.00 0.00
1:53 pm 13:53 Mostly Cloudy with Light Rain 81 27.2 66 18.9 61 61 VRB 5 7 30.05 1018 10 16 0.00 0.00
2:53 pm 14:53 Mostly Cloudy 84 28.9 69 20.6 61 61 N N/A 30.03 1017 10 16 0.00 0.00
3:53 pm 15:53 Mostly Cloudy 82 27.8 68 20 63 63 VRB 3 6 30.01 1016 10 16 0.00 0.00
4:53 pm 16:53 Mostly Cloudy with Light Rain 85 29.4 69 20.6 59 59 VRB 6 9 30.00 1016 10 16 0.00 0.00
5:53 pm 17:53 Sunny 84 28.9 67 19.4 57 57 VRB 3 6 29.99 1016 10 16 0.00 0.00
6:53 pm 18:53 Partly Cloudy with Light Rain 83 28.3 67 19.4 59 59 VRB 3 6 29.98 1015 10 16 0.00 0.00
7:53 pm 19:53 Mostly Sunny 81 27.2 67 19.4 62 62 VRB 5 7 29.99 1016 10 16 0.00 0.00
8:53 pm 20:53 Cloudy 74 23.3 68 20 82 82 N N/A 30.01 1016 10 16 0.00 0.00
9:53 pm 21:53 Partly Cloudy 73 22.8 68 20 84 84 N N/A 30.01 1016 10 16 N/A
10:53 pm 22:53 Clear 71 21.7 68 20 90 90 N N/A 30.04 1017 10 16 N/A
11:53 pm 23:53 Clear 70 21.1 68 20 93 93 N N/A 30.04 1017 10 16 N/A

Powered by AerisWeather